TimePST,TemperatureF,Dew PointF,Humidity,Sea Level PressureIn,VisibilityMPH,Wind Direction,Wind SpeedMPH,Gust SpeedMPH,PrecipitationIn,Events,Conditions,WindDirDegrees,DateUTC
12:53 AM,45.0,39.9,82,30.12,10.0,Calm,Calm,-,N/A,,Clear,0,2013-02-06 08:53:00
1:53 AM,41.0,37.9,89,30.12,10.0,South,3.5,-,N/A,,Clear,180,2013-02-06 09:53:00
2:53 AM,39.9,37.9,93,30.11,10.0,SSE,4.6,-,N/A,,Clear,150,2013-02-06 10:53:00
3:53 AM,39.0,37.0,93,30.12,10.0,SE,4.6,-,N/A,,Partly Cloudy,140,2013-02-06 11:53:00
4:08 AM,39.2,37.4,93,30.16,10.0,SSE,4.6,-,N/A,,Mostly Cloudy,150,2013-02-06 12:08:00
4:53 AM,39.0,37.0,93,30.13,10.0,South,4.6,-,N/A,,Mostly Cloudy,170,2013-02-06 12:53:00
5:11 AM,39.2,37.4,93,30.17,10.0,South,3.5,-,N/A,,Partly Cloudy,170,2013-02-06 13:11:00
5:53 AM,37.9,36.0,93,30.13,10.0,South,3.5,-,N/A,,Clear,190,2013-02-06 13:53:00
6:53 AM,37.0,35.1,93,30.14,10.0,South,3.5,-,N/A,,Clear,180,2013-02-06 14:53:00
7:53 AM,37.9,36.0,93,30.15,10.0,SSW,4.6,-,N/A,,Clear,210,2013-02-06 15:53:00
8:53 AM,45.0,39.0,80,30.16,10.0,South,6.9,-,N/A,,Clear,170,2013-02-06 16:53:00
9:53 AM,48.9,39.9,71,30.16,10.0,South,5.8,-,N/A,,Clear,170,2013-02-06 17:53:00
10:53 AM,53.1,39.9,61,30.16,10.0,Calm,Calm,-,N/A,,Clear,0,2013-02-06 18:53:00
11:53 AM,55.9,42.1,60,30.14,10.0,NW,8.1,-,N/A,,Clear,310,2013-02-06 19:53:00
12:53 PM,55.9,39.9,55,30.12,10.0,NW,8.1,-,N/A,,Clear,310,2013-02-06 20:53:00
1:53 PM,59.0,39.9,49,30.09,10.0,NW,9.2,-,N/A,,Clear,320,2013-02-06 21:53:00
2:53 PM,60.1,39.9,47,30.08,10.0,West,11.5,-,N/A,,Clear,260,2013-02-06 22:53:00
3:53 PM,57.9,37.0,46,30.08,10.0,WNW,10.4,-,N/A,,Clear,290,2013-02-06 23:53:00
4:53 PM,55.9,39.9,55,30.09,10.0,West,8.1,-,N/A,,Clear,260,2013-02-07 00:53:00
5:53 PM,52.0,39.9,63,30.09,10.0,WNW,8.1,-,N/A,,Clear,290,2013-02-07 01:53:00
6:53 PM,50.0,39.0,66,30.11,10.0,Calm,Calm,-,N/A,,Clear,0,2013-02-07 02:53:00
7:53 PM,48.0,39.0,71,30.12,10.0,SW,6.9,-,N/A,,Clear,220,2013-02-07 03:53:00
8:53 PM,46.9,37.9,71,30.14,10.0,SW,6.9,-,N/A,,Clear,220,2013-02-07 04:53:00
9:53 PM,46.0,37.0,71,30.13,10.0,Calm,Calm,-,N/A,,Clear,0,2013-02-07 05:53:00
10:53 PM,46.0,37.0,71,30.13,10.0,SW,6.9,-,N/A,,Clear,230,2013-02-07 06:53:00
11:53 PM,43.0,37.9,82,30.14,10.0,South,9.2,-,N/A,,Clear,170,2013-02-07 07:53:00